Weather in Girardot

Colombia     4°17′50″N   74°48′03″W
temp.,
°C
wind,
m/s
gust,
m/s
humid.,
%
clouds,
%
prec.,
mm/h
press.,
hPa
HPBL,
m
24 june, thu
thu2401:00+22e119098 1.1 101314
04:00+21s119196 0.1 101311
07:00+21sse119095 0.2 101480
10:00+24wsw117770 0.1 1015476
13:00+28w12645 0.1 1010928
16:00+29w116170 0.0 1007818
19:00+25ene117520 0.2 100913
22:00+23ene118221 0.5 101114
25 june, fri
fri2501:00+21ne229471 7.2 101135
04:00+20e119682 6.1 101212
07:00+21ene1191100 9.2 101498
10:00+25wsw117788 0.1 1014686
13:00+28w126440 0.1 1010999
16:00+29wnw116322 0.0 1007892
19:00+25ene117579 0.4 100913
22:00+23e118395 1.4 101116
26 june, sat
sat2601:00+21ene2293100 7.3 101143
04:00+20ene1195100 5.5 101237
07:00+21ese119299 9.5 101499
10:00+24ene1181100 1.0 1015575
13:00+28nw116613 1.2 10101051
16:00+28nw116415 0.0 1008925
19:00+25s1175100 0.1 100913
22:00+23ene2284100 0.9 101127
27 june, sun
sun2701:00+22e1193100 4.6 101126
04:00+21ese119798 5.8 101149
07:00+21ssw1194100 8.9 1014171
10:00+23ssw128871 1.3 1014434
13:00+28sw236837 1.7 10111182
16:00+28sw226621 0.0 1008899
19:00+24ssw117950 0.0 101012
22:00+23se008352 0.1 101213
28 june, mon
mon2801:00+22se118569 0.9 101216
04:00+20ese118761 1.2 101312
07:00+21sse0184100 1.2 101572
10:00+26sw23705 0.0 1015736
13:00+29sw346111 0.1 10111274
16:00+28sw236791 0.1 1009815
19:00+25e117378 0.1 101113
22:00+23se1187100 1.4 101316